Location: Lane
(33.5226°N, 79.8788°W)
Time: 03:13:11
(UTC+00:00)

Tiros 1 despin weight - Pass Details

Date: 12 October 2022
Orbit: 590 x 637 km, 48.2° (Epoch: 30 November)

Event Time Altitude Azimuth Distance (km) Brightness Sun altitude
Rises 18:54:37 0° 282° (WNW) 2,818 ? 41.5°
Reaches altitude 10° 18:57:38 10° 303° (WNW) 1,923 ? 41.1°
Maximum altitude 19:00:27 16° 343° (NNW) 1,554 ? 40.7°
Drops below altitude 10° 19:03:18 10° 23° (NNE) 1,940 ? 40.3°
Sets 19:06:22 0° 45° (NE) 2,855 ? 39.9°
